Time,TemperatureF,DewpointF,PressureIn,WindDirection,WindDirectionDegrees,WindSpeedMPH,WindSpeedGustMPH,Humidity,HourlyPrecipIn,Conditions,Clouds,dailyrainin,SoftwareType,DateUTC
2013-02-28 00:03:00,33.2,31.4,29.73,North,355,4.0,12.0,93,0.00,,,0.00,Wunderground v.1.15,2013-02-28 06:03:00,
2013-02-28 00:08:00,33.3,31.5,29.74,NW,323,4.0,12.0,93,0.00,,,0.00,Wunderground v.1.15,2013-02-28 06:08:00,
2013-02-28 00:14:00,33.3,31.5,29.73,NW,321,4.0,7.0,93,0.00,,,0.00,Wunderground v.1.15,2013-02-28 06:14:00,
2013-02-28 00:20:00,33.4,31.6,29.74,NE,38,4.0,8.0,93,0.00,,,0.00,Wunderground v.1.15,2013-02-28 06:20:00,
2013-02-28 00:26:00,33.4,31.3,29.74,NNW,345,4.0,8.0,92,0.00,,,0.00,Wunderground v.1.15,2013-02-28 06:26:00,
2013-02-28 00:31:00,33.5,31.4,29.74,NNW,334,5.0,5.0,92,0.00,,,0.00,Wunderground v.1.15,2013-02-28 06:31:00,
2013-02-28 00:37:00,33.5,31.4,29.74,NNE,15,4.0,9.0,92,0.00,,,0.00,Wunderground v.1.15,2013-02-28 06:37:00,
2013-02-28 00:43:00,33.5,31.4,29.74,North,355,4.0,5.0,92,0.00,,,0.00,Wunderground v.1.15,2013-02-28 06:43:00,
2013-02-28 00:49:00,33.6,31.5,29.74,NW,311,3.0,5.0,92,0.00,,,0.00,Wunderground v.1.15,2013-02-28 06:49:00,
2013-02-28 00:55:00,33.6,31.5,29.75,NE,49,3.0,8.0,92,0.00,,,0.00,Wunderground v.1.15,2013-02-28 06:55:00,
2013-02-28 01:01:00,33.6,31.5,29.75,North,360,3.0,5.0,92,0.00,,,0.00,Wunderground v.1.15,2013-02-28 07:01:00,
2013-02-28 01:06:00,33.6,31.5,29.75,North,355,3.0,9.0,92,0.00,,,0.00,Wunderground v.1.15,2013-02-28 07:06:00,
2013-02-28 01:12:00,33.6,31.5,29.75,North,355,3.0,3.0,92,0.00,,,0.00,Wunderground v.1.15,2013-02-28 07:12:00,
2013-02-28 01:18:00,33.6,31.5,29.76,NNW,343,3.0,8.0,92,0.00,,,0.00,Wunderground v.1.15,2013-02-28 07:18:00,
2013-02-28 01:24:00,33.6,31.5,29.76,North,9,3.0,8.0,92,0.00,,,0.00,Wunderground v.1.15,2013-02-28 07:24:00,
2013-02-28 01:30:00,33.6,31.5,29.76,NNW,330,3.0,3.0,92,0.00,,,0.00,Wunderground v.1.15,2013-02-28 07:30:00,
2013-02-28 01:36:00,33.7,31.6,29.76,North,360,4.0,6.0,92,0.00,,,0.00,Wunderground v.1.15,2013-02-28 07:36:00,
2013-02-28 01:42:00,33.7,31.6,29.76,North,5,4.0,8.0,92,0.00,,,0.00,Wunderground v.1.15,2013-02-28 07:42:00,
2013-02-28 01:48:00,33.7,31.6,29.76,NNW,348,3.0,8.0,92,0.00,,,0.00,Wunderground v.1.15,2013-02-28 07:48:00,
2013-02-28 01:54:00,33.7,31.6,29.76,NE,36,3.0,6.0,92,0.00,,,0.00,Wunderground v.1.15,2013-02-28 07:54:00,
2013-02-28 02:00:00,33.7,31.6,29.76,NNE,27,3.0,3.0,92,0.00,,,0.00,Wunderground v.1.15,2013-02-28 08:00:00,
2013-02-28 02:05:00,33.7,31.6,29.76,North,355,3.0,13.0,92,0.00,,,0.00,Wunderground v.1.15,2013-02-28 08:05:00,
2013-02-28 02:11:00,33.6,31.5,29.77,North,9,3.0,3.0,92,0.00,,,0.00,Wunderground v.1.15,2013-02-28 08:11:00,
2013-02-28 02:17:00,33.5,31.4,29.77,NNW,345,3.0,8.0,92,0.00,,,0.00,Wunderground v.1.15,2013-02-28 08:17:00,
2013-02-28 02:23:00,33.5,31.4,29.77,North,5,4.0,5.0,92,0.00,,,0.00,Wunderground v.1.15,2013-02-28 08:23:00,
2013-02-28 02:29:00,33.5,31.4,29.77,North,351,4.0,11.0,92,0.00,,,0.00,Wunderground v.1.15,2013-02-28 08:29:00,
2013-02-28 02:35:00,33.6,31.5,29.77,NNW,329,4.0,4.0,92,0.00,,,0.00,Wunderground v.1.15,2013-02-28 08:35:00,
2013-02-28 02:41:00,33.6,31.5,29.77,NW,325,3.0,3.0,92,0.00,,,0.00,Wunderground v.1.15,2013-02-28 08:41:00,
2013-02-28 02:47:00,33.6,31.5,29.77,North,355,3.0,7.0,92,0.00,,,0.00,Wunderground v.1.15,2013-02-28 08:47:00,
2013-02-28 02:53:00,33.5,31.7,29.77,NW,315,3.0,3.0,93,0.00,,,0.00,Wunderground v.1.15,2013-02-28 08:53:00,
2013-02-28 02:59:00,33.5,31.7,29.77,NNW,331,3.0,6.0,93,0.00,,,0.00,Wunderground v.1.15,2013-02-28 08:59:00,
2013-02-28 03:04:00,33.5,31.7,29.77,North,350,3.0,13.0,93,0.00,,,0.00,Wunderground v.1.15,2013-02-28 09:04:00,
2013-02-28 03:10:00,33.4,31.9,29.77,North,355,4.0,4.0,94,0.00,,,0.00,Wunderground v.1.15,2013-02-28 09:10:00,
2013-02-28 03:16:00,33.4,31.9,29.78,North,360,4.0,6.0,94,0.00,,,0.00,Wunderground v.1.15,2013-02-28 09:16:00,
2013-02-28 03:22:00,33.3,31.8,29.78,NNW,330,4.0,6.0,94,0.00,,,0.00,Wunderground v.1.15,2013-02-28 09:22:00,
2013-02-28 03:28:00,33.3,31.8,29.78,NW,309,4.0,7.0,94,0.00,,,0.00,Wunderground v.1.15,2013-02-28 09:28:00,
2013-02-28 03:34:00,33.4,31.9,29.78,NNW,336,5.0,5.0,94,0.00,,,0.00,Wunderground v.1.15,2013-02-28 09:34:00,
2013-02-28 03:39:00,33.4,31.9,29.78,NNW,331,5.0,7.0,94,0.00,,,0.00,Wunderground v.1.15,2013-02-28 09:39:00,
2013-02-28 03:44:00,33.4,31.9,29.79,North,355,4.0,11.0,94,0.00,,,0.00,Wunderground v.1.15,2013-02-28 09:44:00,
2013-02-28 03:49:00,33.4,31.9,29.79,NNW,333,3.0,11.0,94,0.00,,,0.00,Wunderground v.1.15,2013-02-28 09:49:00,
2013-02-28 03:55:00,33.4,31.9,29.79,NNW,337,3.0,9.0,94,0.00,,,0.00,Wunderground v.1.15,2013-02-28 09:55:00,
2013-02-28 04:01:00,33.4,31.9,29.79,NNW,338,3.0,10.0,94,0.00,,,0.00,Wunderground v.1.15,2013-02-28 10:01:00,
2013-02-28 04:06:00,33.4,31.9,29.80,NW,312,3.0,10.0,94,0.00,,,0.00,Wunderground v.1.15,2013-02-28 10:06:00,
2013-02-28 04:11:00,33.3,31.8,29.80,NNW,340,3.0,4.0,94,0.00,,,0.00,Wunderground v.1.15,2013-02-28 10:11:00,
2013-02-28 04:17:00,33.4,31.9,29.80,North,5,3.0,13.0,94,0.00,,,0.00,Wunderground v.1.15,2013-02-28 10:17:00,
2013-02-28 04:23:00,33.4,31.9,29.80,NW,306,4.0,5.0,94,0.00,,,0.00,Wunderground v.1.15,2013-02-28 10:23:00,
2013-02-28 04:28:00,33.3,31.8,29.80,NNW,341,4.0,6.0,94,0.00,,,0.00,Wunderground v.1.15,2013-02-28 10:28:00,
2013-02-28 04:34:00,33.3,31.8,29.80,North,355,4.0,8.0,94,0.00,,,0.00,Wunderground v.1.15,2013-02-28 10:34:00,
2013-02-28 04:39:00,33.3,31.8,29.80,NNW,336,4.0,8.0,94,0.00,,,0.00,Wunderground v.1.15,2013-02-28 10:39:00,
2013-02-28 04:45:00,33.3,31.8,29.81,WNW,301,5.0,8.0,94,0.00,,,0.00,Wunderground v.1.15,2013-02-28 10:45:00,
2013-02-28 04:51:00,33.3,31.8,29.81,North,355,4.0,5.0,94,0.00,,,0.00,Wunderground v.1.15,2013-02-28 10:51:00,
2013-02-28 04:57:00,33.4,31.9,29.81,WNW,298,4.0,6.0,94,0.00,,,0.00,Wunderground v.1.15,2013-02-28 10:57:00,
2013-02-28 05:03:00,33.4,31.9,29.82,NNW,346,3.0,11.0,94,0.00,,,0.00,Wunderground v.1.15,2013-02-28 11:03:00,
2013-02-28 05:08:00,33.3,31.8,29.82,NNW,333,3.0,11.0,94,0.00,,,0.00,Wunderground v.1.15,2013-02-28 11:08:00,
2013-02-28 05:14:00,33.4,31.6,29.82,North,5,3.0,6.0,93,0.00,,,0.00,Wunderground v.1.15,2013-02-28 11:14:00,
2013-02-28 05:19:00,33.5,31.7,29.82,North,360,4.0,9.0,93,0.00,,,0.00,Wunderground v.1.15,2013-02-28 11:19:00,
2013-02-28 05:25:00,33.5,31.4,29.83,NNW,333,5.0,10.0,92,0.00,,,0.00,Wunderground v.1.15,2013-02-28 11:25:00,
2013-02-28 05:31:00,33.7,31.4,29.83,North,351,6.0,10.0,91,0.00,,,0.00,Wunderground v.1.15,2013-02-28 11:31:00,
2013-02-28 05:37:00,33.7,31.4,29.83,NNW,342,5.0,10.0,91,0.00,,,0.00,Wunderground v.1.15,2013-02-28 11:37:00,
2013-02-28 05:43:00,33.7,31.4,29.83,NNW,334,5.0,6.0,91,0.00,,,0.00,Wunderground v.1.15,2013-02-28 11:43:00,
2013-02-28 05:48:00,33.6,31.3,29.83,NNW,343,4.0,8.0,91,0.00,,,0.00,Wunderground v.1.15,2013-02-28 11:48:00,
2013-02-28 05:53:00,33.6,31.3,29.83,North,360,4.0,7.0,91,0.00,,,0.00,Wunderground v.1.15,2013-02-28 11:53:00,
2013-02-28 05:58:00,33.6,31.3,29.84,NW,323,5.0,9.0,91,0.00,,,0.00,Wunderground v.1.15,2013-02-28 11:58:00,
2013-02-28 06:03:00,33.5,31.2,29.84,North,5,5.0,9.0,91,0.00,,,0.00,Wunderground v.1.15,2013-02-28 12:03:00,
2013-02-28 06:08:00,33.5,31.2,29.84,NNE,24,5.0,9.0,91,0.00,,,0.00,Wunderground v.1.15,2013-02-28 12:08:00,
2013-02-28 06:13:00,33.5,31.2,29.84,North,351,6.0,7.0,91,0.00,,,0.00,Wunderground v.1.15,2013-02-28 12:13:00,
2013-02-28 06:19:00,33.5,30.9,29.84,NNW,342,6.0,9.0,90,0.00,,,0.00,Wunderground v.1.15,2013-02-28 12:19:00,
2013-02-28 06:25:00,33.5,31.2,29.84,NNW,344,5.0,6.0,91,0.00,,,0.00,Wunderground v.1.15,2013-02-28 12:25:00,
2013-02-28 06:30:00,33.5,31.2,29.85,North,5,5.0,9.0,91,0.00,,,0.00,Wunderground v.1.15,2013-02-28 12:30:00,
2013-02-28 06:36:00,33.5,31.2,29.85,NNW,346,5.0,9.0,91,0.00,,,0.00,Wunderground v.1.15,2013-02-28 12:36:00,
2013-02-28 06:42:00,33.4,31.1,29.85,NNW,346,4.0,10.0,91,0.00,,,0.00,Wunderground v.1.15,2013-02-28 12:42:00,
2013-02-28 06:48:00,33.4,31.1,29.85,NNW,331,4.0,10.0,91,0.00,,,0.00,Wunderground v.1.15,2013-02-28 12:48:00,
2013-02-28 06:53:00,33.3,31.2,29.86,NNW,331,4.0,7.0,92,0.00,,,0.00,Wunderground v.1.15,2013-02-28 12:53:00,
2013-02-28 06:59:00,33.3,31.2,29.86,NW,304,4.0,7.0,92,0.00,,,0.00,Wunderground v.1.15,2013-02-28 12:59:00,
2013-02-28 07:05:00,33.3,31.2,29.86,NNW,348,4.0,14.0,92,0.00,,,0.00,Wunderground v.1.15,2013-02-28 13:05:00,
2013-02-28 07:11:00,33.3,31.2,29.86,NNW,327,4.0,5.0,92,0.00,,,0.00,Wunderground v.1.15,2013-02-28 13:11:00,
2013-02-28 07:17:00,33.4,31.1,29.87,NNW,336,3.0,6.0,91,0.00,,,0.00,Wunderground v.1.15,2013-02-28 13:17:00,
2013-02-28 07:23:00,33.4,31.1,29.87,North,351,4.0,5.0,91,0.00,,,0.00,Wunderground v.1.15,2013-02-28 13:23:00,
2013-02-28 07:29:00,33.5,31.2,29.87,NNW,344,4.0,6.0,91,0.00,,,0.00,Wunderground v.1.15,2013-02-28 13:29:00,
2013-02-28 07:34:00,33.5,31.2,29.88,NNE,17,4.0,6.0,91,0.00,,,0.00,Wunderground v.1.15,2013-02-28 13:34:00,
2013-02-28 07:39:00,33.6,31.0,29.88,NNW,333,3.0,6.0,90,0.00,,,0.00,Wunderground v.1.15,2013-02-28 13:39:00,
2013-02-28 07:45:00,33.8,31.2,29.88,North,9,4.0,8.0,90,0.00,,,0.00,Wunderground v.1.15,2013-02-28 13:45:00,
2013-02-28 07:50:00,33.9,31.3,29.89,NNW,338,4.0,4.0,90,0.00,,,0.00,Wunderground v.1.15,2013-02-28 13:50:00,
2013-02-28 07:55:00,33.9,31.3,29.89,NNW,348,4.0,9.0,90,0.00,,,0.00,Wunderground v.1.15,2013-02-28 13:55:00,
2013-02-28 08:00:00,33.9,31.3,29.89,NNW,347,5.0,8.0,90,0.00,,,0.00,Wunderground v.1.15,2013-02-28 14:00:00,
2013-02-28 08:05:00,34.0,31.1,29.89,North,355,5.0,10.0,89,0.00,,,0.00,Wunderground v.1.15,2013-02-28 14:05:00,
2013-02-28 08:10:00,34.1,31.2,29.89,NNE,13,5.0,6.0,89,0.00,,,0.00,Wunderground v.1.15,2013-02-28 14:10:00,
2013-02-28 08:16:00,34.2,31.0,29.89,NNW,346,5.0,8.0,88,0.00,,,0.00,Wunderground v.1.15,2013-02-28 14:16:00,
2013-02-28 08:21:00,34.3,31.1,29.90,North,5,5.0,8.0,88,0.00,,,0.00,Wunderground v.1.15,2013-02-28 14:21:00,
2013-02-28 08:26:00,34.4,31.2,29.90,NNW,346,6.0,13.0,88,0.00,,,0.00,Wunderground v.1.15,2013-02-28 14:26:00,
2013-02-28 08:31:00,34.5,31.0,29.90,North,10,6.0,6.0,87,0.00,,,0.00,Wunderground v.1.15,2013-02-28 14:31:00,
2013-02-28 08:36:00,34.5,31.0,29.90,NNW,341,6.0,20.0,87,0.00,,,0.00,Wunderground v.1.15,2013-02-28 14:36:00,
2013-02-28 08:41:00,34.6,31.1,29.90,WNW,296,6.0,7.0,87,0.00,,,0.00,Wunderground v.1.15,2013-02-28 14:41:00,
2013-02-28 08:47:00,34.7,31.2,29.90,NNW,339,6.0,9.0,87,0.00,,,0.00,Wunderground v.1.15,2013-02-28 14:47:00,
2013-02-28 08:52:00,34.6,31.1,29.91,NW,309,5.0,6.0,87,0.00,,,0.00,Wunderground v.1.15,2013-02-28 14:52:00,
2013-02-28 08:58:00,34.7,31.2,29.91,North,351,4.0,6.0,87,0.00,,,0.00,Wunderground v.1.15,2013-02-28 14:58:00,
2013-02-28 09:04:00,34.8,31.3,29.91,NNW,346,3.0,8.0,87,0.00,,,0.00,Wunderground v.1.15,2013-02-28 15:04:00,
2013-02-28 09:09:00,34.6,31.1,29.91,North,349,5.0,11.0,87,0.00,,,0.00,Wunderground v.1.15,2013-02-28 15:09:00,
2013-02-28 09:14:00,34.6,31.1,29.91,NNW,345,6.0,8.0,87,0.00,,,0.00,Wunderground v.1.15,2013-02-28 15:14:00,
2013-02-28 09:19:00,34.7,31.2,29.91,NNW,328,5.0,10.0,87,0.00,,,0.00,Wunderground v.1.15,2013-02-28 15:19:00,
2013-02-28 09:24:00,34.7,30.9,29.92,North,355,5.0,6.0,86,0.00,,,0.00,Wunderground v.1.15,2013-02-28 15:24:00,
2013-02-28 09:29:00,34.9,31.1,29.92,NNE,17,5.0,12.0,86,0.00,,,0.00,Wunderground v.1.15,2013-02-28 15:29:00,
2013-02-28 09:34:00,35.0,31.2,29.92,NW,323,5.0,10.0,86,0.00,,,0.00,Wunderground v.1.15,2013-02-28 15:34:00,
2013-02-28 09:39:00,35.1,31.0,29.92,North,5,5.0,14.0,85,0.00,,,0.00,Wunderground v.1.15,2013-02-28 15:39:00,
2013-02-28 09:45:00,35.2,31.1,29.92,North,360,5.0,11.0,85,0.00,,,0.00,Wunderground v.1.15,2013-02-28 15:45:00,
2013-02-28 09:50:00,35.2,31.1,29.92,WSW,255,6.0,6.0,85,0.00,,,0.00,Wunderground v.1.15,2013-02-28 15:50:00,
2013-02-28 09:55:00,35.3,31.5,29.92,North,360,5.0,7.0,86,0.00,,,0.01,Wunderground v.1.15,2013-02-28 15:55:00,
2013-02-28 10:00:00,35.3,31.5,29.93,NNW,336,5.0,5.0,86,0.00,,,0.01,Wunderground v.1.15,2013-02-28 16:00:00,
2013-02-28 10:05:00,35.3,31.5,29.93,North,360,5.0,14.0,86,0.00,,,0.01,Wunderground v.1.15,2013-02-28 16:05:00,
2013-02-28 10:10:00,35.3,31.5,29.93,NNW,342,5.0,5.0,86,0.00,,,0.01,Wunderground v.1.15,2013-02-28 16:10:00,
2013-02-28 10:15:00,35.2,32.0,29.93,NNW,334,4.0,5.0,88,0.00,,,0.01,Wunderground v.1.15,2013-02-28 16:15:00,
2013-02-28 10:21:00,35.0,31.8,29.93,North,355,5.0,9.0,88,0.00,,,0.01,Wunderground v.1.15,2013-02-28 16:21:00,
2013-02-28 10:26:00,35.0,32.1,29.93,NNW,348,6.0,9.0,89,0.00,,,0.01,Wunderground v.1.15,2013-02-28 16:26:00,
2013-02-28 10:31:00,35.0,32.1,29.94,North,9,5.0,5.0,89,0.00,,,0.01,Wunderground v.1.15,2013-02-28 16:31:00,
2013-02-28 10:37:00,35.1,32.2,29.94,North,355,4.0,6.0,89,0.00,,,0.01,Wunderground v.1.15,2013-02-28 16:37:00,
2013-02-28 10:42:00,35.4,32.8,29.94,North,360,3.0,4.0,90,0.00,,,0.01,Wunderground v.1.15,2013-02-28 16:42:00,
2013-02-28 10:47:00,35.5,32.6,29.94,NNW,337,3.0,5.0,89,0.00,,,0.02,Wunderground v.1.15,2013-02-28 16:47:00,
2013-02-28 10:52:00,35.7,32.8,29.94,NNW,335,3.0,7.0,89,0.00,,,0.02,Wunderground v.1.15,2013-02-28 16:52:00,
2013-02-28 10:57:00,35.9,32.7,29.94,North,350,3.0,7.0,88,0.00,,,0.02,Wunderground v.1.15,2013-02-28 16:57:00,
2013-02-28 11:03:00,36.0,32.2,29.94,WNW,294,5.0,13.0,86,0.00,,,0.03,Wunderground v.1.15,2013-02-28 17:03:00,
2013-02-28 11:08:00,36.2,32.7,29.94,NNW,329,5.0,13.0,87,0.00,,,0.03,Wunderground v.1.15,2013-02-28 17:08:00,
2013-02-28 11:13:00,36.5,33.0,29.94,North,349,4.0,5.0,87,0.00,,,0.03,Wunderground v.1.15,2013-02-28 17:13:00,
2013-02-28 11:18:00,36.3,32.8,29.94,NNW,339,4.0,7.0,87,0.00,,,0.03,Wunderground v.1.15,2013-02-28 17:18:00,
2013-02-28 11:24:00,36.2,33.0,29.95,NNW,327,4.0,7.0,88,0.00,,,0.04,Wunderground v.1.15,2013-02-28 17:24:00,
2013-02-28 11:29:00,36.1,32.6,29.95,NW,306,3.0,7.0,87,0.00,,,0.04,Wunderground v.1.15,2013-02-28 17:29:00,
2013-02-28 11:34:00,36.1,32.3,29.94,NW,315,5.0,13.0,86,0.00,,,0.04,Wunderground v.1.15,2013-02-28 17:34:00,
2013-02-28 11:40:00,36.3,32.2,29.94,NNW,336,5.0,5.0,85,0.04,,,0.05,Wunderground v.1.15,2013-02-28 17:40:00,
2013-02-28 11:45:00,36.4,32.3,29.95,NNW,336,4.0,6.0,85,0.04,,,0.05,Wunderground v.1.15,2013-02-28 17:45:00,
2013-02-28 11:50:00,36.3,31.9,29.95,NNW,328,4.0,4.0,84,0.04,,,0.05,Wunderground v.1.15,2013-02-28 17:50:00,
2013-02-28 11:55:00,36.0,31.3,29.95,North,5,5.0,14.0,83,0.00,,,0.06,Wunderground v.1.15,2013-02-28 17:55:00,
2013-02-28 12:01:00,35.9,31.2,29.95,NNW,329,5.0,7.0,83,0.00,,,0.06,Wunderground v.1.15,2013-02-28 18:01:00,
2013-02-28 12:07:00,35.8,31.4,29.95,North,5,5.0,14.0,84,0.00,,,0.06,Wunderground v.1.15,2013-02-28 18:07:00,
2013-02-28 12:12:00,36.0,31.3,29.95,NNW,328,5.0,5.0,83,0.00,,,0.06,Wunderground v.1.15,2013-02-28 18:12:00,
2013-02-28 12:18:00,36.2,31.5,29.95,North,360,4.0,5.0,83,0.00,,,0.06,Wunderground v.1.15,2013-02-28 18:18:00,
2013-02-28 12:23:00,36.0,30.4,29.95,NNW,332,5.0,15.0,80,0.00,,,0.07,Wunderground v.1.15,2013-02-28 18:23:00,
2013-02-28 12:28:00,35.8,30.5,29.96,NW,321,6.0,15.0,81,0.00,,,0.07,Wunderground v.1.15,2013-02-28 18:28:00,
2013-02-28 12:34:00,35.8,29.9,29.95,North,360,5.0,10.0,79,0.00,,,0.07,Wunderground v.1.15,2013-02-28 18:34:00,
2013-02-28 12:39:00,36.0,30.1,29.95,North,355,4.0,10.0,79,0.00,,,0.07,Wunderground v.1.15,2013-02-28 18:39:00,
2013-02-28 12:44:00,36.3,30.1,29.95,North,5,4.0,8.0,78,0.00,,,0.07,Wunderground v.1.15,2013-02-28 18:44:00,
2013-02-28 12:49:00,36.5,30.0,29.95,North,355,5.0,8.0,77,0.00,,,0.07,Wunderground v.1.15,2013-02-28 18:49:00,
2013-02-28 12:54:00,36.6,30.1,29.95,NNW,344,5.0,11.0,77,0.00,,,0.08,Wunderground v.1.15,2013-02-28 18:54:00,
2013-02-28 13:00:00,36.8,29.9,29.95,NE,56,5.0,5.0,76,0.00,,,0.08,Wunderground v.1.15,2013-02-28 19:00:00,
2013-02-28 13:06:00,37.1,30.2,29.95,NNW,337,5.0,8.0,76,0.00,,,0.08,Wunderground v.1.15,2013-02-28 19:06:00,
2013-02-28 13:12:00,37.1,29.9,29.95,North,360,5.0,5.0,75,0.00,,,0.09,Wunderground v.1.15,2013-02-28 19:12:00,
2013-02-28 13:17:00,37.2,30.3,29.95,NNE,13,4.0,8.0,76,0.00,,,0.09,Wunderground v.1.15,2013-02-28 19:17:00,
2013-02-28 13:22:00,37.3,30.4,29.95,NW,308,3.0,4.0,76,0.00,,,0.09,Wunderground v.1.15,2013-02-28 19:22:00,
2013-02-28 13:28:00,37.1,29.9,29.95,NW,322,4.0,7.0,75,0.00,,,0.09,Wunderground v.1.15,2013-02-28 19:28:00,
2013-02-28 13:33:00,36.8,30.3,29.95,NW,313,4.0,5.0,77,0.00,,,0.09,Wunderground v.1.15,2013-02-28 19:33:00,
2013-02-28 13:39:00,36.5,30.3,29.95,NNW,346,4.0,12.0,78,0.00,,,0.10,Wunderground v.1.15,2013-02-28 19:39:00,
2013-02-28 13:44:00,36.1,29.9,29.96,WNW,302,4.0,5.0,78,0.00,,,0.10,Wunderground v.1.15,2013-02-28 19:44:00,
2013-02-28 13:50:00,36.0,29.8,29.96,NW,322,4.0,4.0,78,0.00,,,0.10,Wunderground v.1.15,2013-02-28 19:50:00,
2013-02-28 13:56:00,35.9,30.0,29.96,North,360,3.0,6.0,79,0.00,,,0.10,Wunderground v.1.15,2013-02-28 19:56:00,
2013-02-28 14:03:00,35.7,29.8,29.96,NW,309,4.0,15.0,79,0.00,,,0.10,Wunderground v.1.15,2013-02-28 20:03:00,
2013-02-28 14:08:00,35.6,29.4,29.96,NW,318,5.0,15.0,78,0.00,,,0.10,Wunderground v.1.15,2013-02-28 20:08:00,
2013-02-28 14:14:00,35.4,28.6,29.97,NW,325,6.0,9.0,76,0.00,,,0.10,Wunderground v.1.15,2013-02-28 20:14:00,
2013-02-28 14:20:00,35.3,28.5,29.97,North,5,7.0,7.0,76,0.00,,,0.10,Wunderground v.1.15,2013-02-28 20:20:00,
2013-02-28 14:26:00,35.5,28.7,29.97,NNW,338,6.0,9.0,76,0.00,,,0.10,Wunderground v.1.15,2013-02-28 20:26:00,
2013-02-28 14:31:00,35.4,28.3,29.97,NW,318,6.0,7.0,75,0.00,,,0.11,Wunderground v.1.15,2013-02-28 20:31:00,
2013-02-28 14:36:00,35.6,28.5,29.98,North,360,6.0,10.0,75,0.00,,,0.11,Wunderground v.1.15,2013-02-28 20:36:00,
2013-02-28 14:41:00,35.6,28.8,29.98,NW,322,5.0,6.0,76,0.00,,,0.11,Wunderground v.1.15,2013-02-28 20:41:00,
2013-02-28 14:47:00,35.6,28.5,29.98,NNW,348,6.0,10.0,75,0.00,,,0.11,Wunderground v.1.15,2013-02-28 20:47:00,
2013-02-28 14:52:00,35.7,28.9,29.98,NNW,327,5.0,5.0,76,0.00,,,0.11,Wunderground v.1.15,2013-02-28 20:52:00,
2013-02-28 14:57:00,35.8,29.0,29.99,NNW,332,3.0,7.0,76,0.00,,,0.11,Wunderground v.1.15,2013-02-28 20:57:00,
2013-02-28 15:03:00,35.5,28.7,29.99,North,355,4.0,12.0,76,0.00,,,0.11,Wunderground v.1.15,2013-02-28 21:03:00,
2013-02-28 15:08:00,35.6,28.8,29.99,NNE,19,4.0,12.0,76,0.00,,,0.11,Wunderground v.1.15,2013-02-28 21:08:00,
2013-02-28 15:13:00,35.5,28.0,29.99,NNW,335,5.0,9.0,74,0.00,,,0.11,Wunderground v.1.15,2013-02-28 21:13:00,
2013-02-28 15:18:00,35.4,28.6,29.99,North,5,5.0,9.0,76,0.00,,,0.11,Wunderground v.1.15,2013-02-28 21:18:00,
2013-02-28 15:23:00,35.5,28.4,29.99,NNW,331,5.0,7.0,75,0.00,,,0.11,Wunderground v.1.15,2013-02-28 21:23:00,
2013-02-28 15:29:00,35.5,28.4,29.99,WNW,301,5.0,8.0,75,0.00,,,0.11,Wunderground v.1.15,2013-02-28 21:29:00,
2013-02-28 15:34:00,35.4,28.6,29.99,North,349,5.0,9.0,76,0.00,,,0.11,Wunderground v.1.15,2013-02-28 21:34:00,
2013-02-28 15:39:00,35.5,28.7,30.00,North,5,4.0,9.0,76,0.00,,,0.11,Wunderground v.1.15,2013-02-28 21:39:00,
2013-02-28 15:44:00,35.4,28.6,30.00,North,5,3.0,6.0,76,0.00,,,0.12,Wunderground v.1.15,2013-02-28 21:44:00,
2013-02-28 15:50:00,35.2,28.4,30.00,North,360,4.0,4.0,76,0.00,,,0.12,Wunderground v.1.15,2013-02-28 21:50:00,
2013-02-28 15:56:00,35.1,28.6,30.00,North,360,3.0,4.0,77,0.00,,,0.12,Wunderground v.1.15,2013-02-28 21:56:00,
2013-02-28 16:01:00,35.0,28.8,30.00,NNW,347,3.0,13.0,78,0.00,,,0.12,Wunderground v.1.15,2013-02-28 22:01:00,
2013-02-28 16:07:00,34.9,28.7,30.00,North,351,4.0,13.0,78,0.00,,,0.12,Wunderground v.1.15,2013-02-28 22:07:00,
2013-02-28 16:13:00,34.8,28.3,30.00,North,360,4.0,10.0,77,0.00,,,0.12,Wunderground v.1.15,2013-02-28 22:13:00,
2013-02-28 16:18:00,34.7,28.5,30.00,North,355,5.0,10.0,78,0.00,,,0.12,Wunderground v.1.15,2013-02-28 22:18:00,
2013-02-28 16:24:00,34.6,28.8,30.00,North,350,4.0,6.0,79,0.00,,,0.12,Wunderground v.1.15,2013-02-28 22:24:00,
2013-02-28 16:29:00,34.5,28.7,30.00,North,360,3.0,6.0,79,0.00,,,0.12,Wunderground v.1.15,2013-02-28 22:29:00,
2013-02-28 16:34:00,34.3,28.5,30.00,NNW,345,4.0,6.0,79,0.00,,,0.12,Wunderground v.1.15,2013-02-28 22:34:00,
2013-02-28 16:40:00,34.2,28.7,30.01,North,355,5.0,5.0,80,0.00,,,0.12,Wunderground v.1.15,2013-02-28 22:40:00,
2013-02-28 16:45:00,34.1,28.6,30.01,North,5,4.0,7.0,80,0.00,,,0.12,Wunderground v.1.15,2013-02-28 22:45:00,
2013-02-28 16:51:00,33.9,28.4,30.01,WSW,247,4.0,5.0,80,0.00,,,0.12,Wunderground v.1.15,2013-02-28 22:51:00,
2013-02-28 16:56:00,33.7,28.2,30.01,North,360,5.0,5.0,80,0.00,,,0.12,Wunderground v.1.15,2013-02-28 22:56:00,
2013-02-28 17:01:00,33.7,28.5,30.01,NNW,333,4.0,13.0,81,0.00,,,0.12,Wunderground v.1.15,2013-02-28 23:01:00,
2013-02-28 17:06:00,33.6,28.7,30.02,NNW,344,3.0,13.0,82,0.00,,,0.12,Wunderground v.1.15,2013-02-28 23:06:00,
2013-02-28 17:12:00,33.5,28.6,30.02,NNW,338,3.0,4.0,82,0.00,,,0.12,Wunderground v.1.15,2013-02-28 23:12:00,
2013-02-28 17:17:00,33.4,28.5,30.02,North,360,4.0,4.0,82,0.00,,,0.12,Wunderground v.1.15,2013-02-28 23:17:00,
2013-02-28 17:22:00,33.2,28.3,30.02,NW,322,3.0,5.0,82,0.00,,,0.12,Wunderground v.1.15,2013-02-28 23:22:00,
2013-02-28 17:28:00,33.0,28.1,30.03,NW,313,4.0,7.0,82,0.00,,,0.12,Wunderground v.1.15,2013-02-28 23:28:00,
2013-02-28 17:33:00,32.9,28.0,30.03,NNW,327,4.0,7.0,82,0.00,,,0.12,Wunderground v.1.15,2013-02-28 23:33:00,
2013-02-28 17:38:00,32.9,28.3,30.03,ENE,65,3.0,7.0,83,0.00,,,0.12,Wunderground v.1.15,2013-02-28 23:38:00,
2013-02-28 17:43:00,32.7,27.8,30.03,North,355,3.0,7.0,82,0.00,,,0.12,Wunderground v.1.15,2013-02-28 23:43:00,
2013-02-28 18:06:00,32.3,27.7,30.04,North,355,3.0,3.0,83,0.00,,,0.12,Wunderground v.1.15,2013-03-01 00:06:00,
2013-02-28 18:12:00,32.2,27.6,30.04,North,355,3.0,4.0,83,0.00,,,0.12,Wunderground v.1.15,2013-03-01 00:12:00,
2013-02-28 18:18:00,32.1,27.8,30.05,NNW,346,3.0,4.0,84,0.00,,,0.12,Wunderground v.1.15,2013-03-01 00:18:00,
2013-02-28 18:24:00,32.0,27.7,30.05,NNW,344,3.0,5.0,84,0.00,,,0.12,Wunderground v.1.15,2013-03-01 00:24:00,
2013-02-28 18:30:00,32.0,27.7,30.05,North,360,3.0,4.0,84,0.00,,,0.12,Wunderground v.1.15,2013-03-01 00:30:00,
2013-02-28 18:36:00,31.8,27.5,30.05,NNW,335,3.0,7.0,84,0.00,,,0.12,Wunderground v.1.15,2013-03-01 00:36:00,
2013-02-28 18:42:00,31.6,27.6,30.05,North,360,3.0,4.0,85,0.00,,,0.12,Wunderground v.1.15,2013-03-01 00:42:00,
2013-02-28 18:48:00,31.5,27.5,30.05,North,10,3.0,7.0,85,0.00,,,0.12,Wunderground v.1.15,2013-03-01 00:48:00,
2013-02-28 18:54:00,31.4,27.4,30.05,NNW,348,3.0,4.0,85,0.00,,,0.12,Wunderground v.1.15,2013-03-01 00:54:00,
2013-02-28 19:00:00,31.4,27.4,30.05,NW,319,3.0,3.0,85,0.00,,,0.12,Wunderground v.1.15,2013-03-01 01:00:00,
2013-02-28 19:05:00,31.3,26.7,30.05,NNW,340,3.0,11.0,83,0.00,,,0.12,Wunderground v.1.15,2013-03-01 01:05:00,
2013-02-28 19:11:00,31.2,25.7,30.06,NNW,348,3.0,5.0,80,0.00,,,0.12,Wunderground v.1.15,2013-03-01 01:11:00,
2013-02-28 19:17:00,31.2,25.4,30.06,North,349,3.0,6.0,79,0.00,,,0.12,Wunderground v.1.15,2013-03-01 01:17:00,
2013-02-28 19:23:00,31.1,25.3,30.06,North,355,3.0,6.0,79,0.00,,,0.12,Wunderground v.1.15,2013-03-01 01:23:00,
2013-02-28 19:29:00,31.0,25.6,30.06,North,11,3.0,6.0,80,0.00,,,0.12,Wunderground v.1.15,2013-03-01 01:29:00,
2013-02-28 19:35:00,30.9,25.5,30.06,NNW,347,2.0,5.0,80,0.00,,,0.12,Wunderground v.1.15,2013-03-01 01:35:00,
2013-02-28 19:41:00,30.8,25.4,30.06,NNW,338,2.0,4.0,80,0.00,,,0.12,Wunderground v.1.15,2013-03-01 01:41:00,
2013-02-28 19:47:00,30.8,25.7,30.07,North,360,2.0,4.0,81,0.00,,,0.12,Wunderground v.1.15,2013-03-01 01:47:00,
2013-02-28 19:53:00,30.7,25.9,30.07,North,5,1.0,2.0,82,0.00,,,0.12,Wunderground v.1.15,2013-03-01 01:53:00,
2013-02-28 19:59:00,30.6,25.8,30.06,North,10,1.0,2.0,82,0.00,,,0.12,Wunderground v.1.15,2013-03-01 01:59:00,
2013-02-28 20:04:00,30.5,26.0,30.06,East,90,1.0,8.0,83,0.00,,,0.12,Wunderground v.1.15,2013-03-01 02:04:00,
2013-02-28 20:10:00,30.5,26.0,30.06,North,5,1.0,1.0,83,0.00,,,0.12,Wunderground v.1.15,2013-03-01 02:10:00,
2013-02-28 20:16:00,30.5,25.7,30.07,North,9,1.0,3.0,82,0.00,,,0.12,Wunderground v.1.15,2013-03-01 02:16:00,
2013-02-28 20:22:00,30.4,25.3,30.06,North,355,2.0,2.0,81,0.00,,,0.12,Wunderground v.1.15,2013-03-01 02:22:00,
2013-02-28 20:28:00,30.3,25.2,30.06,North,5,2.0,5.0,81,0.00,,,0.12,Wunderground v.1.15,2013-03-01 02:28:00,
2013-02-28 20:34:00,30.2,25.1,30.07,NNW,338,2.0,3.0,81,0.00,,,0.12,Wunderground v.1.15,2013-03-01 02:34:00,
2013-02-28 20:40:00,30.1,24.7,30.07,North,5,2.0,3.0,80,0.00,,,0.12,Wunderground v.1.15,2013-03-01 02:40:00,
2013-02-28 20:46:00,29.9,24.5,30.07,WNW,303,2.0,3.0,80,0.00,,,0.12,Wunderground v.1.15,2013-03-01 02:46:00,
2013-02-28 20:51:00,29.8,24.7,30.07,NW,321,2.0,5.0,81,0.00,,,0.12,Wunderground v.1.15,2013-03-01 02:51:00,
2013-02-28 20:57:00,29.7,24.6,30.07,NW,323,3.0,5.0,81,0.00,,,0.12,Wunderground v.1.15,2013-03-01 02:57:00,
2013-02-28 21:02:00,29.5,24.7,30.07,North,5,3.0,5.0,82,0.00,,,0.12,Wunderground v.1.15,2013-03-01 03:02:00,
2013-02-28 21:08:00,29.3,24.8,30.07,NNW,329,3.0,5.0,83,0.00,,,0.12,Wunderground v.1.15,2013-03-01 03:08:00,
2013-02-28 21:13:00,29.2,24.7,30.07,WNW,289,2.0,3.0,83,0.00,,,0.12,Wunderground v.1.15,2013-03-01 03:13:00,
2013-02-28 21:18:00,29.1,24.9,30.07,NNW,341,2.0,3.0,84,0.00,,,0.12,Wunderground v.1.15,2013-03-01 03:18:00,
2013-02-28 21:24:00,29.0,24.8,30.07,NNW,331,2.0,9.0,84,0.00,,,0.12,Wunderground v.1.15,2013-03-01 03:24:00,
2013-02-28 21:30:00,28.8,24.6,30.07,North,350,2.0,2.0,84,0.00,,,0.12,Wunderground v.1.15,2013-03-01 03:30:00,
2013-02-28 21:36:00,28.7,24.5,30.08,North,355,2.0,3.0,84,0.00,,,0.12,Wunderground v.1.15,2013-03-01 03:36:00,
2013-02-28 21:42:00,28.6,24.4,30.08,NW,315,2.0,4.0,84,0.00,,,0.12,Wunderground v.1.15,2013-03-01 03:42:00,
2013-02-28 21:48:00,28.3,24.1,30.08,NNW,342,2.0,4.0,84,0.00,,,0.12,Wunderground v.1.15,2013-03-01 03:48:00,
2013-02-28 21:54:00,28.1,24.2,30.08,North,350,2.0,4.0,85,0.00,,,0.12,Wunderground v.1.15,2013-03-01 03:54:00,
2013-02-28 22:00:00,27.9,24.0,30.08,NNE,19,2.0,2.0,85,0.00,,,0.12,Wunderground v.1.15,2013-03-01 04:00:00,
2013-02-28 22:05:00,27.8,23.9,30.08,NNW,337,2.0,12.0,85,0.00,,,0.12,Wunderground v.1.15,2013-03-01 04:05:00,
2013-02-28 22:11:00,27.6,23.7,30.08,NNW,337,2.0,4.0,85,0.00,,,0.12,Wunderground v.1.15,2013-03-01 04:11:00,
2013-02-28 22:17:00,27.3,23.4,30.08,NNW,335,2.0,4.0,85,0.00,,,0.12,Wunderground v.1.15,2013-03-01 04:17:00,
2013-02-28 22:23:00,27.1,23.2,30.08,North,360,1.0,2.0,85,0.00,,,0.12,Wunderground v.1.15,2013-03-01 04:23:00,
2013-02-28 22:29:00,26.9,23.3,30.08,NNW,347,2.0,6.0,86,0.00,,,0.12,Wunderground v.1.15,2013-03-01 04:29:00,
2013-02-28 22:35:00,26.9,23.5,30.08,North,360,2.0,2.0,87,0.00,,,0.12,Wunderground v.1.15,2013-03-01 04:35:00,
2013-02-28 22:41:00,26.9,23.5,30.08,NNE,30,2.0,2.0,87,0.00,,,0.12,Wunderground v.1.15,2013-03-01 04:41:00,
2013-02-28 22:46:00,26.9,23.5,30.08,North,355,2.0,6.0,87,0.00,,,0.12,Wunderground v.1.15,2013-03-01 04:46:00,
2013-02-28 22:52:00,26.9,23.5,30.08,North,349,3.0,4.0,87,0.00,,,0.12,Wunderground v.1.15,2013-03-01 04:52:00,
2013-02-28 22:58:00,26.7,23.4,30.08,North,360,2.0,4.0,87,0.00,,,0.12,Wunderground v.1.15,2013-03-01 04:58:00,
2013-02-28 23:00:00,26.7,23.4,30.08,North,360,2.0,3.0,87,0.00,,,0.12,Wunderground v.1.15,2013-03-01 05:00:00,
2013-02-28 23:01:00,26.7,23.4,30.08,NNW,347,2.0,10.0,87,0.00,,,0.12,Wunderground v.1.15,2013-03-01 05:01:00,
2013-02-28 23:02:00,26.6,23.0,30.08,NNW,336,2.0,10.0,86,0.00,,,0.12,Wunderground v.1.15,2013-03-01 05:02:00,
2013-02-28 23:03:00,26.6,23.0,30.08,North,355,2.0,10.0,86,0.00,,,0.12,Wunderground v.1.15,2013-03-01 05:03:00,
2013-02-28 23:08:00,26.4,22.5,30.08,NNW,328,3.0,10.0,85,0.00,,,0.12,Wunderground v.1.15,2013-03-01 05:08:00,
2013-02-28 23:09:00,26.4,22.5,30.08,NNW,335,3.0,10.0,85,0.00,,,0.12,Wunderground v.1.15,2013-03-01 05:09:00,
2013-02-28 23:15:00,26.2,22.0,30.08,North,9,3.0,4.0,84,0.00,,,0.12,Wunderground v.1.15,2013-03-01 05:15:00,
2013-02-28 23:21:00,26.1,21.6,30.08,NNW,342,3.0,4.0,83,0.00,,,0.12,Wunderground v.1.15,2013-03-01 05:21:00,
2013-02-28 23:27:00,26.2,21.7,30.08,North,5,4.0,5.0,83,0.00,,,0.12,Wunderground v.1.15,2013-03-01 05:27:00,
2013-02-28 23:33:00,26.3,21.8,30.08,NW,319,3.0,9.0,83,0.00,,,0.12,Wunderground v.1.15,2013-03-01 05:33:00,
2013-02-28 23:39:00,26.4,21.7,30.08,NW,322,4.0,9.0,82,0.00,,,0.12,Wunderground v.1.15,2013-03-01 05:39:00,
2013-02-28 23:45:00,26.5,21.7,30.08,NNW,327,3.0,6.0,82,0.00,,,0.12,Wunderground v.1.15,2013-03-01 05:45:00,
2013-02-28 23:51:00,26.5,21.5,30.08,North,360,2.0,4.0,81,0.00,,,0.12,Wunderground v.1.15,2013-03-01 05:51:00,
2013-02-28 23:57:00,26.5,21.2,30.08,North,351,2.0,8.0,80,0.00,,,0.12,Wunderground v.1.15,2013-03-01 05:57:00,